Вернуться в каталог

FLOCK 4G 28

АктивенНаукаSSO
NORAD 62634·PAYLOAD·🇺🇸 United States

Запущен Jan 14, 2025 с Vandenberg Space Force Base

Loading…

Ближайшие Пролёты (ближайшие 24 часа)

TLE

СвежийSource: CelesTrak SupGP

Эпоха: Sep 11, 2026, 04:44 UTC

1 62634C 25009AB  26254.19759259  .00013620  00000+0  38779-3 0  2545
2 62634  97.3995 339.1322 0002043  45.6486 259.8658 15.36148384    17

Отслеживайте FLOCK 4G 28 в реальном времени с AllMySat

Download on the App Store